When you browse on this site, cookies collect data to enhance your experience and personalize the content and advertising you see.
Visit our Privacy Policy to learn more. By continuing to use the site, you agree to this use of cookies and data.
  • In Hungary
  • List of Countries
  • For 7 days
  • Water Temperature
  • Satellite Maps
  • Weather Map
  • News
  • Weather Widgets
  • user-avatar
    Login

    Hourly Weather Borki

    Today, 23 May, Thursday

    Time Temperature Precipitation Wind Pressure Humidity
    00:00 +10°C° 0.1 mm 5 mps 755 mmHg 92%
    01:00 +11°C° 0 mm 4 mps 755 mmHg 92%
    02:00 +11°C° 0.1 mm 4 mps 756 mmHg 91%
    03:00 +10°C° 0.1 mm 4 mps 756 mmHg 91%
    04:00 +10°C° 0.1 mm 4 mps 756 mmHg 91%
    05:00 +10°C° 0.1 mm 4 mps 756 mmHg 90%
    06:00 +10°C° 0.1 mm 4 mps 756 mmHg 89%
    07:00 +10°C° 0.1 mm 4 mps 757 mmHg 88%
    08:00 +11°C° 0 mm 4 mps 757 mmHg 84%
    09:00 +12°C° 0 mm 4 mps 757 mmHg 80%
    10:00 +12°C° 0 mm 4 mps 757 mmHg 76%
    11:00 +13°C° 0 mm 4 mps 757 mmHg 70%
    12:00 +15°C° 0 mm 4 mps 757 mmHg 63%
    13:00 +17°C° 0 mm 3 mps 757 mmHg 57%
    14:00 +17°C° 0 mm 3 mps 757 mmHg 56%
    15:00 +18°C° 0 mm 3 mps 757 mmHg 56%
    16:00 +18°C° 0 mm 2 mps 757 mmHg 55%
    17:00 +17°C° 0 mm 2 mps 757 mmHg 59%
    18:00 +17°C° 0 mm 2 mps 757 mmHg 64%
    19:00 +16°C° 0 mm 1 mps 757 mmHg 68%
    20:00 +14°C° 0 mm 1 mps 757 mmHg 71%
    21:00 +13°C° 0 mm 1 mps 757 mmHg 75%
    22:00 +11°C° 0 mm 1 mps 757 mmHg 78%
    23:00 +10°C° 0 mm 1 mps 758 mmHg 78%

    Tomorrow, 24 May, Friday

    Time Temperature Precipitation Wind Pressure Humidity
    00:00 +10°C° 0 mm 1 mps 758 mmHg 77%
    01:00 +8°C° 0 mm 0 mps 758 mmHg 77%
    02:00 +9°C° 0 mm 1 mps 758 mmHg 77%
    03:00 +9°C° 0 mm 1 mps 757 mmHg 76%
    04:00 +8°C° 0 mm 1 mps 757 mmHg 76%
    05:00 +10°C° 0 mm 1 mps 757 mmHg 71%
    06:00 +12°C° 0 mm 1 mps 757 mmHg 65%
    07:00 +14°C° 0 mm 1 mps 757 mmHg 60%
    08:00 +16°C° 0 mm 1 mps 757 mmHg 54%
    09:00 +19°C° 0 mm 1 mps 757 mmHg 48%
    10:00 +21°C° 0 mm 1 mps 756 mmHg 42%
    11:00 +22°C° 0 mm 1 mps 756 mmHg 39%
    12:00 +21°C° 0 mm 0 mps 756 mmHg 37%
    13:00 +22°C° 0 mm 0 mps 755 mmHg 34%
    14:00 +24°C° 0 mm 1 mps 755 mmHg 34%
    15:00 +24°C° 0 mm 1 mps 755 mmHg 34%
    16:00 +24°C° 0 mm 1 mps 754 mmHg 35%
    17:00 +23°C° 0 mm 1 mps 754 mmHg 42%
    18:00 +21°C° 0 mm 1 mps 754 mmHg 50%
    19:00 +20°C° 0 mm 1 mps 753 mmHg 58%
    20:00 +18°C° 0 mm 1 mps 754 mmHg 62%
    21:00 +16°C° 0 mm 1 mps 754 mmHg 66%
    22:00 +14°C° 0 mm 2 mps 754 mmHg 70%
    23:00 +14°C° 0 mm 2 mps 754 mmHg 75%

    Day after tomorrow, 25 May, Saturday

    Time Temperature Precipitation Wind Pressure Humidity
    00:00 +14°C° 0 mm 2 mps 754 mmHg 79%
    01:00 +14°C° 0 mm 2 mps 754 mmHg 83%
    02:00 +13°C° 0 mm 2 mps 754 mmHg 86%
    03:00 +13°C° 0 mm 2 mps 754 mmHg 89%
    04:00 +12°C° 0 mm 2 mps 754 mmHg 93%
    05:00 +13°C° 0 mm 3 mps 754 mmHg 88%
    06:00 +14°C° 0 mm 3 mps 754 mmHg 83%
    07:00 +16°C° 0 mm 3 mps 755 mmHg 77%
    08:00 +17°C° 0 mm 4 mps 755 mmHg 68%
    09:00 +18°C° 0 mm 4 mps 755 mmHg 58%
    10:00 +19°C° 0 mm 4 mps 755 mmHg 49%
    11:00 +20°C° 0 mm 5 mps 755 mmHg 47%
    12:00 +21°C° 0 mm 5 mps 755 mmHg 45%
    13:00 +21°C° 0 mm 5 mps 754 mmHg 44%
    14:00 +22°C° 0 mm 5 mps 754 mmHg 45%
    15:00 +22°C° 0 mm 4 mps 754 mmHg 47%
    16:00 +22°C° 0 mm 4 mps 754 mmHg 48%
    17:00 +20°C° 0 mm 4 mps 754 mmHg 53%
    18:00 +19°C° 0 mm 3 mps 754 mmHg 59%
    19:00 +18°C° 0 mm 2 mps 754 mmHg 64%
    20:00 +16°C° 0 mm 2 mps 754 mmHg 69%
    21:00 +15°C° 0 mm 2 mps 754 mmHg 74%
    22:00 +12°C° 0 mm 3 mps 755 mmHg 79%
    23:00 +11°C° 0 mm 3 mps 754 mmHg 83%

    26 May, Sunday

    Time Temperature Precipitation Wind Pressure Humidity
    00:00 +11°C° 0 mm 3 mps 754 mmHg 87%
    01:00 +10°C° 0 mm 3 mps 754 mmHg 91%
    02:00 +10°C° 0 mm 3 mps 754 mmHg 93%
    03:00 +9°C° 0 mm 3 mps 754 mmHg 94%
    04:00 +8°C° 0 mm 3 mps 754 mmHg 96%
    05:00 +10°C° 0 mm 3 mps 754 mmHg 87%
    06:00 +11°C° 0 mm 3 mps 754 mmHg 79%
    07:00 +12°C° 0 mm 4 mps 754 mmHg 71%
    08:00 +14°C° 0 mm 4 mps 754 mmHg 66%
    09:00 +15°C° 0 mm 5 mps 753 mmHg 61%
    10:00 +17°C° 0 mm 5 mps 753 mmHg 56%
    11:00 +17°C° 0.1 mm 5 mps 753 mmHg 55%
    12:00 +19°C° 0.1 mm 6 mps 753 mmHg 55%
    13:00 +20°C° 0.1 mm 6 mps 753 mmHg 54%
    14:00 +19°C° 0 mm 6 mps 752 mmHg 54%
    15:00 +19°C° 0 mm 6 mps 752 mmHg 54%
    16:00 +19°C° 0 mm 5 mps 752 mmHg 53%
    17:00 +17°C° 0 mm 5 mps 752 mmHg 58%
    18:00 +17°C° 0 mm 4 mps 752 mmHg 62%
    19:00 +16°C° 0 mm 3 mps 752 mmHg 67%
    20:00 +15°C° 0 mm 2 mps 752 mmHg 72%
    21:00 +14°C° 0 mm 2 mps 752 mmHg 76%
    22:00 +13°C° 0 mm 1 mps 753 mmHg 81%
    23:00 +13°C° 0 mm 1 mps 753 mmHg 81%

    27 May, Monday

    Time Temperature Precipitation Wind Pressure Humidity
    00:00 +13°C° 0 mm 2 mps 753 mmHg 81%
    01:00 +14°C° 0 mm 2 mps 753 mmHg 81%
    02:00 +13°C° 0 mm 2 mps 752 mmHg 85%
    03:00 +13°C° 0 mm 2 mps 752 mmHg 89%
    04:00 +12°C° 0 mm 2 mps 751 mmHg 92%
    05:00 +13°C° 0 mm 3 mps 751 mmHg 85%
    06:00 +14°C° 0 mm 3 mps 751 mmHg 78%
    07:00 +17°C° 0 mm 3 mps 750 mmHg 70%
    08:00 +19°C° 0 mm 4 mps 750 mmHg 65%
    09:00 +20°C° 0 mm 4 mps 750 mmHg 60%
    10:00 +22°C° 0 mm 4 mps 750 mmHg 54%
    11:00 +23°C° 0 mm 5 mps 749 mmHg 51%
    12:00 +25°C° 0 mm 5 mps 749 mmHg 49%
    13:00 +27°C° 0 mm 5 mps 748 mmHg 46%
    14:00 +26°C° 0.4 mm 4 mps 748 mmHg 51%
    15:00 +25°C° 0.4 mm 4 mps 748 mmHg 57%
    16:00 +24°C° 0.4 mm 3 mps 747 mmHg 63%
    17:00 +22°C° 0.6 mm 3 mps 747 mmHg 69%
    18:00 +21°C° 0.6 mm 2 mps 747 mmHg 75%
    19:00 +21°C° 0.6 mm 1 mps 747 mmHg 82%
    20:00 +20°C° 0.1 mm 1 mps 747 mmHg 84%
    21:00 +18°C° 0.1 mm 1 mps 747 mmHg 87%
    22:00 +16°C° 0.1 mm 1 mps 747 mmHg 90%
    23:00 +16°C° 0 mm 1 mps 747 mmHg 91%

    28 May, Tuesday

    Time Temperature Precipitation Wind Pressure Humidity
    00:00 +16°C° 0 mm 1 mps 747 mmHg 92%
    01:00 +16°C° 0 mm 1 mps 746 mmHg 93%
    02:00 +15°C° 0.5 mm 1 mps 746 mmHg 94%
    03:00 +15°C° 0.5 mm 1 mps 746 mmHg 95%
    04:00 +15°C° 0.5 mm 1 mps 746 mmHg 96%
    05:00 +15°C° 1 mm 1 mps 746 mmHg 96%
    06:00 +16°C° 1 mm 1 mps 746 mmHg 95%
    07:00 +16°C° 1 mm 1 mps 746 mmHg 95%
    08:00 +18°C° 0.6 mm 1 mps 746 mmHg 93%
    09:00 +18°C° 0.6 mm 1 mps 746 mmHg 90%
    10:00 +19°C° 0.6 mm 1 mps 746 mmHg 88%
    11:00 +20°C° 1.2 mm 1 mps 746 mmHg 85%
    12:00 +21°C° 1.2 mm 1 mps 745 mmHg 82%
    13:00 +22°C° 1.2 mm 1 mps 745 mmHg 79%
    14:00 +22°C° 1.4 mm 1 mps 745 mmHg 78%
    15:00 +22°C° 1.4 mm 1 mps 745 mmHg 77%
    16:00 +22°C° 1.4 mm 1 mps 745 mmHg 76%
    17:00 +21°C° 1.2 mm 1 mps 745 mmHg 80%
    18:00 +21°C° 1.2 mm 1 mps 745 mmHg 84%
    19:00 +20°C° 1.2 mm 1 mps 745 mmHg 88%
    20:00 +19°C° 0.7 mm 1 mps 746 mmHg 90%
    21:00 +18°C° 0.7 mm 1 mps 746 mmHg 91%
    22:00 +17°C° 0.7 mm 2 mps 746 mmHg 93%
    23:00 +16°C° 0.3 mm 2 mps 746 mmHg 94%
    Show more